Phnom Penh, Cambodia

12:46 PM +07 on February 21, 2018 (GMT +0700)
Pochentong International

Weather History for VDPP - November, 2011

Change the Weather History Date:

Saturday, November 26, 2011

  Actual Average Record
Temperature  
Mean Temperature 84 °F -  
Max Temperature 93 °F 83 °F 95 °F (2012)
Min Temperature 76 °F 73 °F 71 °F (1998)
Cooling Degree Days 20    
Growing Degree Days 34 (Base 50)    
Moisture  
Dew Point 70 °F    
Average Humidity 56    
Maximum Humidity 73    
Minimum Humidity 43    
Precipitation  
Precipitation 0.00 in - - ()
Sea Level Pressure  
Sea Level Pressure 29.77 in    
Wind  
Wind Speed 8 mph ()    
Max Wind Speed 14 mph    
Max Gust Speed -    
Visibility 6.1 miles    
Events      
Averages and records for this station are not official NWS values.
T = Trace of Precipitation, MM = Missing Value Source: Averaged Metar Reports

Daily Weather History Graph

Daily Weather History Graph

Search for Another Location

Airport or City:

Trip Planner

Search our weather history database for the weather conditions in past years. The results will help you decide how hot, cold, wet, or windy it might be!

Date:

Astronomy

Nov. 26, 2011 Rise Set
Actual Time 6:01 AM +07 5:33 PM +07
Civil Twilight 5:39 AM +07 5:56 PM +07
Nautical Twilight 5:13 AM +07 6:22 PM +07
Astronomical Twilight 4:47 AM +07 6:47 PM +07
Moon 6:50 AM +07 (11/26) 6:39 PM +07 (11/26)
Length of Visible Light 12h 16m
Length of Day
11h 31m
New Moon, 1% of the Moon is Illuminated
Nov 26
New Moon
Dec 2
First Quarter
Dec 10
Full
Dec 18
Last Quarter
Dec 25
New

Hourly Weather History & Observations

Time (+07) Temp. Heat Index Dew Point Humidity Pressure Visibility Wind Dir Wind Speed Gust Speed Precip Events Conditions
6:00 AM 82.4 °F 86.3 °F 69.8 °F 66% 29.77 in 6.2 mi NNE 9.2 mph - N/A   Partly Cloudy
7:00 AM 80 °F - 73 °F 73% 29.81 in 6 mi North 6.7 mph - -   Scattered Clouds
7:00 AM 82.4 °F 86.3 °F 69.8 °F 66% 29.80 in - NNE 8.1 mph - N/A   Clear
7:30 AM 82.4 °F 84.6 °F 66.2 °F 58% 29.80 in - North 10.4 mph - N/A   Clear
8:00 AM 86.0 °F 89.4 °F 68.0 °F 55% 29.83 in - NNE 11.5 mph - N/A   Clear
8:30 AM 89.6 °F 92.2 °F 66.2 °F 46% 29.83 in - NNE 9.2 mph - N/A   Clear
9:00 AM 91.4 °F 94.0 °F 66.2 °F 43% 29.83 in - NNE 13.8 mph - N/A   Clear
9:30 AM 91.4 °F 95.4 °F 68.0 °F 46% 29.83 in - North 11.5 mph - N/A   Clear
10:00 AM 91.4 °F 96.8 °F 69.8 °F 49% 29.83 in - North 12.7 mph - N/A   Clear
10:30 AM 91.4 °F 95.4 °F 68.0 °F 46% 29.83 in - North 11.5 mph - N/A   Clear
11:00 AM 93.2 °F 97.7 °F 68.0 °F 44% 29.80 in 6.2 mi North 11.5 mph - N/A   Partly Cloudy
11:30 AM 93.2 °F 98.8 °F 69.8 °F 46% 29.80 in 6.2 mi North 10.4 mph - N/A   Scattered Clouds
12:00 PM 93.2 °F 98.8 °F 69.8 °F 46% 29.77 in 6.2 mi NE 10.4 mph - N/A   Scattered Clouds
12:30 PM 91.4 °F 95.4 °F 68.0 °F 46% 29.77 in 6.2 mi NE 11.5 mph - N/A   Scattered Clouds
1:00 PM 91.4 °F 96.8 °F 69.8 °F 49% 29.74 in 6.2 mi NE 11.5 mph - N/A   Scattered Clouds
1:30 PM 91.4 °F 96.8 °F 69.8 °F 49% 29.74 in 6.2 mi North 9.2 mph - N/A   Scattered Clouds
2:00 PM 93.2 °F 98.8 °F 69.8 °F 46% 29.74 in 6.2 mi NE 9.2 mph - N/A   Scattered Clouds
2:30 PM 91.4 °F 98.4 °F 71.6 °F 52% 29.71 in 6.2 mi North 5.8 mph - N/A   Scattered Clouds
3:00 PM 91.4 °F 98.4 °F 71.6 °F 52% 29.71 in 6.2 mi NNW 6.9 mph - N/A   Scattered Clouds
3:30 PM 91.4 °F 96.8 °F 69.8 °F 49% 29.71 in 6.2 mi NE 8.1 mph - N/A   Scattered Clouds
4:00 PM 89.6 °F 93.4 °F 68.0 °F 49% 29.71 in 6.2 mi NNW 8.1 mph - N/A   Scattered Clouds
4:30 PM 87.8 °F 92.6 °F 69.8 °F 55% 29.71 in 6.2 mi NNW 6.9 mph - N/A   Scattered Clouds
5:00 PM 87.8 °F 92.6 °F 69.8 °F 55% 29.71 in 6.2 mi North 6.9 mph - N/A   Scattered Clouds
5:30 PM 86.0 °F 91.8 °F 71.6 °F 62% 29.71 in 6.2 mi NW 4.6 mph - N/A   Partly Cloudy
6:00 PM 86.0 °F 91.8 °F 71.6 °F 62% 29.71 in 5.6 mi NNW 4.6 mph - N/A   Partly Cloudy
6:30 PM 86.0 °F 91.8 °F 71.6 °F 62% 29.74 in 5.6 mi NNW 3.5 mph - N/A   Partly Cloudy
7:00 PM 86.0 °F 93.4 °F 73.4 °F 66% 29.74 in 5.6 mi NNW 3.5 mph - N/A   Scattered Clouds
7:30 PM 86.0 °F 93.4 °F 73.4 °F 66% 29.74 in 5.6 mi NNW 4.6 mph - N/A   Scattered Clouds
8:00 PM 86.0 °F 93.4 °F 73.4 °F 66% 29.77 in 5.6 mi NNW 6.9 mph - N/A   Scattered Clouds
9:00 PM 84.2 °F 89.6 °F 71.6 °F 66% 29.77 in 6.2 mi NW 3.5 mph - N/A   Partly Cloudy
9:30 PM 84.2 °F 89.6 °F 71.6 °F 66% 29.77 in 6.2 mi NNW 6.9 mph - N/A   Partly Cloudy
10:00 PM 84.2 °F 89.6 °F 71.6 °F 66% 29.77 in 6.2 mi North 4.6 mph - N/A   Partly Cloudy
10:30 PM 84.2 °F 89.6 °F 71.6 °F 66% 29.77 in 6.2 mi North 5.8 mph - N/A   Partly Cloudy
11:30 PM 84.2 °F 88.4 °F 69.8 °F 62% 29.80 in 6.2 mi NNE 11.5 mph - N/A   Partly Cloudy